Cagliari, Italy

3:27 AM CEST on April 25, 2018 (GMT +0200)
Elmas Mil

Weather History for LIEE - November, 2012

Change the Weather History Date:

Friday, November 30, 2012

  Actual Average Record
Temperature  
Mean Temperature 51 °F -  
Max Temperature 56 °F 59 °F 73 °F (2014)
Min Temperature 46 °F 44 °F 35 °F (2013)
Degree Days  
Heating Degree Days 14    
Growing Degree Days 1 (Base 50)    
Moisture  
Dew Point 42 °F    
Average Humidity 71    
Maximum Humidity 93    
Minimum Humidity 39    
Precipitation  
Precipitation 0.00 in 0.07 in - ()
Sea Level Pressure  
Sea Level Pressure 29.58 in    
Wind  
Wind Speed 5 mph ()    
Max Wind Speed 10 mph    
Max Gust Speed -    
Visibility 6.4 miles    
Events Rain    
Averages and records for this station are not official NWS values.
T = Trace of Precipitation, MM = Missing Value Source: Averaged Metar Reports

Daily Weather History Graph

Daily Weather History Graph

Search for Another Location

Airport or City:

Astronomy

Nov. 30, 2012 Rise Set
Actual Time 7:23 AM CET 5:01 PM CET
Civil Twilight 6:54 AM CET 5:30 PM CET
Nautical Twilight 6:20 AM CET 6:04 PM CET
Astronomical Twilight 5:48 AM CET 6:36 PM CET
Moon 6:41 PM CET (11/30) 8:43 AM CET (11/30)
Length of Visible Light 10h 36m
Length of Day
9h 37m
Full, 97% of the Moon is Illuminated
Nov 30
Full
Dec 6
Last Quarter
Dec 13
New
Dec 20
First Quarter
Dec 28
Full

Hourly Weather History & Observations

Time (CET) Temp. Windchill Dew Point Humidity Pressure Visibility Wind Dir Wind Speed Gust Speed Precip Events Conditions
12:15 AM 50.0 °F - 42.8 °F 76% 29.53 in 6.2 mi West 5.8 mph - N/A   Partly Cloudy
12:45 AM 50.0 °F - 42.8 °F 76% 29.53 in 6.2 mi West 6.9 mph - N/A   Scattered Clouds
12:55 AM 50.0 °F - 42.8 °F 76% 29.53 in 6.2 mi West 6.9 mph - N/A   Scattered Clouds
1:00 AM 51 °F - 43 °F 65% 29.54 in 6 mi West 6.9 mph - -   Scattered Clouds
1:15 AM 50.0 °F - 42.8 °F 76% 29.53 in 6.2 mi West 5.8 mph - N/A   Scattered Clouds
1:45 AM 50.0 °F - 42.8 °F 76% 29.53 in 6.2 mi WNW 4.6 mph - N/A Rain Light Rain
1:55 AM 50.0 °F - 42.8 °F 76% 29.53 in 6.2 mi WNW 4.6 mph - N/A Rain Light Rain
2:15 AM 50.0 °F - 42.8 °F 76% 29.53 in 6.2 mi NW 4.6 mph - N/A Rain Light Rain
2:55 AM 50.0 °F - 42.8 °F 76% 29.53 in 6.2 mi NW 5.8 mph - N/A   Scattered Clouds
3:15 AM 50.0 °F - 42.8 °F 76% 29.53 in 6.2 mi West 5.8 mph - N/A   Mostly Cloudy
3:45 AM 50.0 °F - 41.0 °F 71% 29.53 in 6.2 mi West 5.8 mph - N/A   Scattered Clouds
3:55 AM 50.0 °F - 41.0 °F 71% 29.53 in 6.2 mi West 5.8 mph - N/A   Scattered Clouds
4:00 AM 51 °F - 42 °F 61% 29.54 in 6 mi West 5.8 mph - -   Partly Cloudy
4:15 AM 50.0 °F - 41.0 °F 71% 29.53 in 6.2 mi WNW 5.8 mph - N/A   Scattered Clouds
4:45 AM 50.0 °F - 41.0 °F 71% 29.53 in 6.2 mi West 5.8 mph - N/A   Mostly Cloudy
4:55 AM 50.0 °F - 41.0 °F 71% 29.53 in 6.2 mi West 5.8 mph - N/A   Mostly Cloudy
5:15 AM 50.0 °F - 41.0 °F 71% 29.53 in 6.2 mi West 5.8 mph - N/A   Mostly Cloudy
5:45 AM 50.0 °F - 41.0 °F 71% 29.53 in 6.2 mi West 8.1 mph - N/A   Scattered Clouds
5:55 AM 50.0 °F - 41.0 °F 71% 29.53 in 6.2 mi West 8.1 mph - N/A   Scattered Clouds
6:15 AM 50.0 °F - 41.0 °F 71% 29.53 in 6.2 mi West 8.1 mph - N/A   Scattered Clouds
6:45 AM 50.0 °F - 42.8 °F 76% 29.53 in 6.2 mi WSW 5.8 mph - N/A   Mostly Cloudy
6:55 AM 50.0 °F - 42.8 °F 76% 29.53 in 6.2 mi WSW 5.8 mph - N/A   Mostly Cloudy
7:00 AM 50 °F - 42 °F 66% 29.54 in 6 mi WSW 5.8 mph - -   Partly Cloudy
7:15 AM 50.0 °F - 42.8 °F 76% 29.53 in 6.2 mi WSW 5.8 mph - N/A   Mostly Cloudy
7:45 AM 50.0 °F - 41.0 °F 71% 29.53 in 6.2 mi West 5.8 mph - N/A   Mostly Cloudy
7:55 AM 50.0 °F - 41.0 °F 71% 29.53 in 6.2 mi West 5.8 mph - N/A   Mostly Cloudy
8:15 AM 50.0 °F - 41.0 °F 71% 29.53 in 6.2 mi West 6.9 mph - N/A   Mostly Cloudy
8:45 AM 50.0 °F - 41.0 °F 71% 29.56 in 6.2 mi West 6.9 mph - N/A   Mostly Cloudy
8:55 AM 50.0 °F - 41.0 °F 71% 29.56 in 6.2 mi West 6.9 mph - N/A   Mostly Cloudy
9:15 AM 51.8 °F - 41.0 °F 67% 29.56 in 6.2 mi West 8.1 mph - N/A   Mostly Cloudy
9:45 AM 51.8 °F - 41.0 °F 67% 29.56 in 6.2 mi WNW 2.3 mph - N/A   Scattered Clouds
9:55 AM 51.8 °F - 41.0 °F 67% 29.56 in 6.2 mi WNW 2.3 mph - N/A   Scattered Clouds
10:00 AM 52 °F - 41 °F 55% 29.58 in 12 mi WNW 2.3 mph - -   Scattered Clouds
10:15 AM 51.8 °F - 42.8 °F 71% 29.56 in 6.2 mi WNW 2.3 mph - N/A   Scattered Clouds
10:45 AM 53.6 °F - 42.8 °F 67% 29.59 in 6.2 mi WNW 2.3 mph - N/A   Partly Cloudy
10:55 AM 53.6 °F - 42.8 °F 67% 29.59 in 6.2 mi WNW 2.3 mph - N/A   Partly Cloudy
11:15 AM 55.4 °F - 42.8 °F 63% 29.56 in 6.2 mi South 1.2 mph - N/A   Partly Cloudy
11:45 AM 57.2 °F - 39.2 °F 51% 29.56 in 6.2 mi WSW 4.6 mph - N/A   Partly Cloudy
11:55 AM 57.2 °F - 39.2 °F 51% 29.56 in 6.2 mi WSW 4.6 mph - N/A   Partly Cloudy
12:15 PM - - - N/A% 29.56 in 6.2 mi NW 1.2 mph - N/A   Scattered Clouds
12:45 PM 57.2 °F - 37.4 °F 48% 29.56 in 6.2 mi WNW 5.8 mph - N/A   Scattered Clouds
12:55 PM 57.2 °F - 37.4 °F 48% 29.56 in 6.2 mi WNW 5.8 mph - N/A   Scattered Clouds
1:00 PM 56 °F - 38 °F 39% 29.58 in 12 mi WNW 5.8 mph - -   Mostly Cloudy
1:15 PM 55.4 °F - 39.2 °F 54% 29.56 in 6.2 mi North 3.5 mph - N/A Rain Light Rain
1:45 PM 55.4 °F - 37.4 °F 51% 29.56 in 6.2 mi ESE 3.5 mph - N/A Rain Light Rain
1:55 PM 55.4 °F - 37.4 °F 51% 29.56 in 6.2 mi ESE 3.5 mph - N/A Rain Light Rain
2:15 PM 53.6 °F - 41.0 °F 62% 29.56 in 6.2 mi NNW 10.4 mph - N/A Rain Light Rain
2:45 PM 51.8 °F - 42.8 °F 71% 29.56 in 6.2 mi NNW 9.2 mph - N/A   Mostly Cloudy
2:55 PM 51.8 °F - 42.8 °F 71% 29.56 in 6.2 mi NNW 9.2 mph - N/A   Mostly Cloudy
3:15 PM 51.8 °F - 42.8 °F 71% 29.59 in 6.2 mi NNW 9.2 mph - N/A   Mostly Cloudy
3:45 PM 51.8 °F - 41.0 °F 67% 29.59 in 6.2 mi North 6.9 mph - N/A   Scattered Clouds
3:55 PM 51.8 °F - 41.0 °F 67% 29.59 in 6.2 mi North 6.9 mph - N/A   Scattered Clouds
4:00 PM 52 °F - 41 °F 57% 29.60 in 12 mi North 6.9 mph - -   Partly Cloudy
4:15 PM 51.8 °F - 42.8 °F 71% 29.59 in 6.2 mi NE 3.5 mph - N/A   Scattered Clouds
4:45 PM 51.8 °F - 42.8 °F 71% 29.59 in 6.2 mi NE 1.2 mph - N/A   Mostly Cloudy
4:55 PM 51.8 °F - 42.8 °F 71% 29.59 in 6.2 mi NE 1.2 mph - N/A   Mostly Cloudy
5:15 PM 51.8 °F - 41.0 °F 67% 29.59 in 6.2 mi Calm Calm - N/A   Mostly Cloudy
5:45 PM 51.8 °F - 42.8 °F 71% 29.59 in 6.2 mi Calm Calm - N/A Rain Light Rain
5:55 PM 51.8 °F - 42.8 °F 71% 29.59 in 6.2 mi Calm Calm - N/A Rain Light Rain
6:15 PM 51.8 °F - 42.8 °F 71% 29.62 in 6.2 mi NE 1.2 mph - N/A Rain Light Rain
6:45 PM 50.0 °F - 44.6 °F 82% 29.62 in 6.2 mi Calm Calm - N/A   Mostly Cloudy
6:55 PM 50.0 °F - 44.6 °F 82% 29.62 in 6.2 mi Calm Calm - N/A   Mostly Cloudy
7:00 PM 50 °F - 44 °F 75% 29.63 in 6 mi Calm Calm - - Rain Light Rain
7:15 PM 50.0 °F - 42.8 °F 76% 29.62 in 6.2 mi Calm Calm - N/A   Mostly Cloudy
7:45 PM 50.0 °F - 42.8 °F 76% 29.62 in 6.2 mi West 1.2 mph - N/A   Scattered Clouds
7:55 PM 50.0 °F - 42.8 °F 76% 29.62 in 6.2 mi West 1.2 mph - N/A   Scattered Clouds
8:15 PM 50.0 °F - 44.6 °F 82% 29.62 in 6.2 mi West 1.2 mph - N/A   Scattered Clouds
8:45 PM 50.0 °F - 44.6 °F 82% 29.65 in 6.2 mi West 1.2 mph - N/A   Scattered Clouds
8:55 PM 50.0 °F - 44.6 °F 82% 29.65 in 6.2 mi West 1.2 mph - N/A   Scattered Clouds
9:15 PM 50.0 °F - 44.6 °F 82% 29.65 in 6.2 mi WNW 3.5 mph - N/A   Mostly Cloudy
9:45 PM 48.2 °F - 44.6 °F 87% 29.65 in 6.2 mi WNW 4.6 mph - N/A   Mostly Cloudy
9:55 PM 48.2 °F - 44.6 °F 87% 29.65 in 6.2 mi WNW 4.6 mph - N/A   Mostly Cloudy
10:00 PM 49 °F - 45 °F 79% 29.67 in 6 mi WNW 4.6 mph - -   Mostly Cloudy
10:15 PM 48.2 °F - 44.6 °F 87% 29.65 in 6.2 mi WNW 4.6 mph - N/A   Mostly Cloudy
10:45 PM 48.2 °F - 44.6 °F 87% 29.68 in 6.2 mi NW 4.6 mph - N/A   Mostly Cloudy
10:55 PM 48.2 °F - 44.6 °F 87% 29.68 in 6.2 mi NW 4.6 mph - N/A   Mostly Cloudy
11:15 PM 48.2 °F - 44.6 °F 87% 29.68 in 6.2 mi NW 3.5 mph - N/A   Mostly Cloudy
11:45 PM 46.4 °F 43.5 °F 44.6 °F 93% 29.68 in 6.2 mi NW 5.8 mph - N/A   Scattered Clouds
11:55 PM 46.4 °F 43.5 °F 44.6 °F 93% 29.68 in 6.2 mi NW 5.8 mph - N/A   Scattered Clouds